Regional Weather Roundup
Issued by NWS

Home | Current Version | Previous Version | Text Only | Print | Product List | Glossary Off
Versions: 1 2 3 4 5 6 7 8 9 10 11 12 13 14 15 16 17 18 19 20 21 22 23 24 25 26 27 28 29 30 31 32 33 34 35 36 37 38 39 40 41 42 43 44 45 46 47 48 49 50

000
ASUS45 KPSR 300310
RWRAZ

ARIZONA HOURLY REGIONAL WEATHER ROUNDUP
NATIONAL WEATHER SERVICE PHOENIX AZ
800 PM MST FRI MAY 29 2015

NOTE: FAIR INDICATES FEW OR NO CLOUDS BELOW 12,000 FEET WITH NO
SIGNIFICANT WEATHER AND/OR OBSTRUCTIONS TO VISIBILITY.

AZZ001>003-036-300400-
NORTHWEST ARIZONA

CITY           SKY/WX    TMP DP  RH WIND       PRES   REMARKS
KINGMAN        CLEAR     82  10   6 SW13      29.99R
$$

AZZ004>008-015-016-018-300400-
NORTH CENTRAL ARIZONA

CITY           SKY/WX    TMP DP  RH WIND       PRES   REMARKS
GRAND CANYON   MOCLDY    59  41  51 CALM      30.22R
WILLIAMS       CLOUDY    64  34  32 S6        30.28R
PRESCOTT       CLEAR     74  23  15 SW7       30.10R
FLAGSTAFF      PTCLDY    57  38  48 CALM      30.25R
PAYSON         CLEAR     75  19  12 W6        30.12R
PAGE           PTCLDY    79  38  22 N7        30.08R
$$

AZZ009>014-017-300400-
NORTHEAST ARIZONA

CITY           SKY/WX    TMP DP  RH WIND       PRES   REMARKS
WINSLOW        MOCLDY    76  32  20 W3        30.10R
SAINT JOHNS    CLEAR     70  27  20 N6        30.13R
WINDOW ROCK    PTCLDY    62  32  32 N5        30.24R
SHOW LOW       MOCLDY    66  28  24 N7        30.21R
$$

AZZ023-300400-
GREATER PHOENIX AREA

CITY           SKY/WX    TMP DP  RH WIND       PRES   REMARKS
PHOENIX        PTCLDY    98  22   6 W10       29.80R
BUCKEYE        CLEAR     90  28  11 NW9       29.81S
GLENDALE       PTCLDY    93  19   7 S5        29.82R
LUKE AFB       CLEAR     91  31  11 W6        29.79R
DEER VALLEY    CLEAR     92  22   8 SW6       29.82S
SCOTTSDALE     CLEAR     94  24   8 W3        29.84R
MESA-FALCON    PTCLDY    93  23   8 W6        29.83
MESA-GATEWAY   CLEAR     93  27   9 CALM      29.85R
CHANDLER       PTCLDY    95  27   8 NW9       29.82R
$$

AZZ027-028-300400-
SOUTHWEST MARICOPA COUNTY AND PINAL COUNTY

CITY           SKY/WX    TMP DP  RH WIND       PRES   REMARKS
CASA GRANDE    CLEAR     88  30  12 CALM      29.82S
GILA BEND      FAIR      93  30  10 NW7       29.79R
$$

AZZ503-504-507>509-300400-
SOUTHEAST ARIZONA

CITY           SKY/WX    TMP DP  RH WIND       PRES   REMARKS
TUCSON         CLEAR     91  26   9 N9        29.92R
DAVIS-MONTHAN  CLEAR     89  26  10 NW10      29.90R
RYAN FIELD       N/A     91  32  12 NW7       29.90R
NOGALES        PTCLDY    80  20  10 S5        30.01R
SIERRA VISTA   CLEAR     76  28  16 NW8       30.06R
DOUGLAS        PTCLDY    80  25  13 SW6       30.00R
SAFFORD        PTCLDY    86  19   8 NW8       29.90R
$$

AZZ020-021-025-026-031-300400-
SOUTHWEST ARIZONA

CITY           SKY/WX    TMP DP  RH WIND       PRES   REMARKS
YUMA           PTCLDY    92  44  19 S9        29.78R
$$

CAZ031-033-041-043-047-048-061-300400-
SOUTHERN CALIFORNIA

CITY           SKY/WX    TMP DP  RH WIND       PRES   REMARKS
DOWNTOWN L.A.  PTCLDY    64  57  78 VRB3      29.90R
L.A. AIRPORT   CLOUDY    60  57  89 W14       29.91S
SAN DIEGO      MOCLDY    64  55  72 W7        29.93R
BURBANK        PTCLDY    71  56  58 SE10G18   29.89R
ONTARIO        MOCLDY    75  56  51 SW9       29.89R
RIVERSIDE      MOCLDY    77  52  41 W9        29.88R
PALM SPRINGS   MOCLDY    95  44  17 E6        29.80R
EL CENTRO NAS  CLEAR     87  38  17 E9        29.76R
IMPERIAL       CLEAR     93  36  13 SE9       29.74S
BLYTHE         CLEAR     93  38  14 S9        29.78R
NEEDLES        CLEAR     97  13   4 SW8       29.80R
$$

NVZ020-UTZ003-300400-
SOUTHERN NEVADA-UTAH

CITY           SKY/WX    TMP DP  RH WIND       PRES   REMARKS
LAS VEGAS      PTCLDY    95  23   7 SE12      29.81S
SALT LAKE CITY MOCLDY    70  44  39 N7        30.09F
$$

NMZ009-TXZ055-300400-
NEW MEXICO-WEST TEXAS

CITY           SKY/WX    TMP DP  RH WIND       PRES   REMARKS
ALBUQUERQUE    PTCLDY    75  32  20 N6        30.12R
EL PASO        PTCLDY    88  19   8 NW8       29.95R
$$


........................KEY........................
SKY/WX - SKY CONDITION/WEATHER
TMP    - TEMPERATURE IN FAHRENHEIT
DP     - DEW POINT IN FAHRENHEIT
RH     - RELATIVE HUMIDITY IN PERCENT
WIND   - DIRECTION AND SPEED IN MILES PER HOUR (MPH)
VRB    - VARIABLE WIND DIRECTION
PRES   - MEAN SEA LEVEL PRESSURE IN INCHES OF MERCURY
         F - FALLING PRESSURE   R - RISING PRESSURE
         S - STEADY PRESSURE
VSB    - VISIBILITY IN MILES
HX     - HEAT INDEX IN FAHRENHEIT
WCI    - WIND CHILL INDEX IN FAHRENHEIT
TC     - TEMPERATURE IN CELSIUS WHICH IS ALSO KNOWN AS
         TEMPERATURE IN CENTIGRADE
AFB    - AIR FORCE BASE
         LUKE AFB IS LUKE AIR FORCE BASE
         DAVIS-MONTHAN IS DAVIS-MONTHAN AIR FORCE BASE
NAS    - NAVAL AIR STATION
         EL CENTRO NAS IS EL CENTRO NAVAL AIR STATION
N/A    - NOT AVAILABLE




USA.gov is the U.S. government's official web portal to all federal, state and local government web resources and services.